Theta_e
316 315 315 314 314 314 314 314 314 314 314 314 315 315 315 314 313 315 316 317 317 316 316 317 316 317 318 317 317 318 321 322 320 318 319 313 315 311 311 311 310 311 312 312 310
313 313 313 313 312 312 312 312 312 313 313 313 314 315 315 315 315 315 317 316 316 315 317 317 317 317 318 317 316 318 321 320 318 317 317 315 314 314 312 312 311 311 312 312 310
311 310 311 311 311 311 311 311 311 311 311 312 312 314 315 315 316 316 317 316 315 315 316 317 317 316 318 317 316 316 321 317 316 315 314 315 313 312 313 316 315 315 313 312 310
311 312 312 312 311 311 310 310 310 310 310 310 311 312 315 316 319 316 317 317 315 314 315 317 318 318 319 319 315 318 315 315 315 314 313 314 312 312 312 316 315 314 312 312 310
312 312 313 313 313 313 313 312 310 310 310 310 310 311 313 315 316 316 316 316 315 314 314 316 318 317 321 316 315 317 315 314 315 313 313 312 313 314 313 314 313 313 312 311 310
312 312 313 313 314 313 313 313 312 311 310 309 310 311 312 315 315 317 315 314 314 314 314 315 317 317 315 317 317 314 314 315 313 313 313 313 315 310 315 314 313 313 313 311 310
312 312 312 312 312 312 313 312 311 311 310 309 309 311 313 314 314 316 316 314 314 313 313 314 316 316 315 314 311 312 316 317 314 313 314 311 315 315 315 313 311 312 312 311 311
312 312 312 312 312 312 312 311 311 311 310 310 310 312 313 313 315 315 317 315 313 313 313 313 314 315 313 311 312 315 314 319 316 313 312 313 317 318 315 310 312 311 308 310 311
313 313 313 313 313 312 312 311 311 310 310 310 311 312 315 314 315 316 317 314 312 312 313 313 314 313 312 317 318 317 319 318 316 312 313 314 317 316 314 311 311 312 310 308 309
313 313 313 313 313 312 312 310 310 310 310 312 313 315 314 314 315 316 316 314 311 312 312 313 313 316 315 318 317 319 318 317 316 314 312 314 314 315 314 312 312 313 313 308 305
306 309 311 311 311 311 311 308 309 309 311 312 314 314 313 314 315 315 315 313 311 310 314 312 316 317 318 317 317 315 316 318 318 312 312 314 314 314 313 313 313 312 312 309 305
307 306 306 307 307 308 306 305 306 308 309 309 311 312 313 314 313 313 313 312 312 314 311 314 315 317 313 313 314 315 317 319 317 310 309 313 312 312 313 312 312 312 313 311 306
309 308 307 307 306 306 305 305 306 308 312 311 310 310 311 311 311 311 311 312 313 313 313 315 316 310 312 313 314 315 317 318 316 311 309 308 313 311 311 308 309 310 309 309 306
312 311 309 309 308 307 307 307 309 311 312 310 308 310 310 311 309 309 310 310 309 313 311 313 311 312 313 314 314 317 314 313 312 312 316 309 315 315 312 311 311 312 310 307 309
316 313 310 310 308 307 308 310 310 310 313 309 307 308 311 310 307 307 308 308 311 310 311 315 310 311 314 315 312 316 308 310 309 311 309 314 312 313 307 310 312 313 313 309 310
316 314 312 311 311 307 308 310 311 310 309 309 310 310 311 309 307 306 306 306 306 309 309 312 306 309 313 305 307 305 308 307 305 308 314 314 313 313 313 312 312 313 311 310 310
318 315 314 312 310 308 309 310 312 309 305 308 311 310 311 311 310 308 308 308 312 313 313 311 310 307 306 310 306 307 313 317 321 318 318 309 310 312 312 312 312 314 314 309 308
321 316 315 313 312 309 309 311 310 311 310 308 310 310 313 311 311 309 309 311 308 309 312 315 315 308 307 313 316 310 315 320 324 318 318 306 311 314 312 311 311 307 308 307 307
321 316 315 314 314 309 307 311 311 312 310 308 310 312 312 311 310 310 311 313 313 309 314 314 315 305 304 305 310 309 312 312 317 305 314 315 316 314 311 309 307 307 306 306 307
321 317 315 315 313 309 308 310 311 309 307 309 311 311 311 312 310 311 311 311 312 309 312 314 314 307 302 303 302 306 307 312 313 320 319 315 315 314 314 312 310 308 307 308 309
321 315 315 315 310 309 309 310 310 308 307 310 311 311 310 311 311 311 311 311 310 309 309 311 313 309 305 307 310 305 309 307 309 313 316 316 315 310 311 312 311 311 310 310 309
317 315 314 313 310 310 310 310 307 308 307 309 308 309 310 309 310 311 311 311 310 308 309 311 313 315 313 304 302 308 310 310 312 313 311 314 315 311 311 311 310 311 309 310 310
316 315 312 312 313 311 310 311 309 310 309 310 310 310 308 309 308 310 311 309 308 310 311 309 312 316 314 306 301 306 306 307 311 312 313 315 314 312 312 310 308 309 310 309 310
315 311 307 308 310 312 312 313 312 310 310 308 308 309 309 310 309 310 310 308 307 309 309 310 313 314 313 313 307 308 307 307 308 312 312 312 312 312 312 311 312 310 307 307 308
316 311 307 305 306 310 312 313 314 313 310 309 309 309 311 311 310 311 311 311 305 305 307 310 313 313 314 314 313 312 310 308 308 309 311 312 312 312 312 311 311 310 309 309 309
313 309 306 308 307 308 309 312 313 314 314 313 311 313 309 310 311 315 313 310 311 307 309 306 313 312 312 311 311 312 311 312 311 311 310 309 309 309 310 309 309 309 308 308 308
308 310 309 306 307 307 308 309 311 312 312 313 313 311 312 311 310 310 311 311 310 311 310 308 310 312 314 313 312 313 312 311 311 311 311 311 311 311 310 310 310 309 309 307 307
Wind_Speed
4 6 7 9 9 11 11 12 11 11 10 8 5 2 1 1 0 3 4 4 3 2 1 1 1 5 5 2 2 3 3 4 3 5 2 7 9 6 7 6 9 11 13 11 8
5 6 8 9 10 10 11 12 12 11 10 8 6 2 4 5 5 7 6 4 2 1 1 1 2 8 3 1 0 3 3 3 1 3 3 6 11 6 6 10 11 14 23 20 15
8 8 8 8 10 11 10 10 12 12 11 10 8 6 4 6 7 8 11 7 3 1 1 0 2 7 3 3 1 1 3 1 3 6 5 5 6 7 8 12 18 18 17 23 23
10 10 10 10 10 11 12 12 12 13 12 12 10 7 5 5 5 7 12 10 5 2 3 3 1 3 3 3 2 3 5 4 2 3 4 5 4 6 17 24 13 13 16 18 25
13 13 13 13 13 13 13 14 15 14 14 13 12 9 7 7 11 9 13 12 9 6 5 4 3 3 3 4 3 5 3 5 6 7 8 7 13 11 19 23 22 24 21 20 23
16 16 15 15 16 16 15 15 16 16 16 16 13 10 8 8 9 11 14 15 13 10 8 6 4 3 2 4 4 3 5 8 7 7 8 7 7 3 8 10 14 20 23 25 26
18 18 18 18 18 18 17 17 18 18 17 18 16 11 13 15 11 13 15 15 14 11 9 7 5 3 4 2 2 1 6 7 11 5 5 4 8 12 23 17 15 19 20 22 27
20 20 20 21 20 20 19 19 19 19 20 19 15 11 9 12 12 15 15 14 13 11 9 7 5 3 3 4 1 3 3 4 5 7 3 4 15 10 11 13 17 19 19 23 27
23 22 22 22 22 22 21 21 21 20 19 18 13 8 9 10 13 16 15 12 12 9 8 6 5 3 4 3 5 5 10 9 5 10 4 11 16 5 11 14 23 27 25 26 27
26 25 24 23 22 23 23 22 22 20 17 12 13 5 14 8 9 10 14 14 10 9 5 5 3 4 3 7 12 11 7 8 10 5 9 11 21 22 33 23 35 38 29 27 27
27 27 26 24 24 22 23 19 8 6 6 8 3 7 9 9 9 9 12 13 11 6 7 1 6 16 17 17 13 7 8 16 15 4 5 16 20 25 33 30 36 36 32 27 30
25 26 26 25 23 21 20 11 11 9 10 15 20 25 28 24 10 16 14 11 9 10 7 3 15 17 0 6 9 8 13 20 13 2 6 14 21 24 23 32 34 35 33 24 23
25 26 27 23 23 19 17 14 12 9 6 9 19 18 23 22 14 18 17 10 7 9 14 16 9 2 8 8 11 11 17 14 10 6 7 12 17 7 8 14 20 31 27 20 22
19 21 24 24 16 14 11 7 4 2 5 5 6 7 9 9 5 12 19 7 4 9 9 9 3 8 7 11 12 13 9 11 8 5 11 4 19 11 9 11 13 31 19 20 21
19 17 17 18 9 8 7 5 5 1 8 1 3 4 7 7 4 4 15 8 8 8 7 6 8 9 10 9 11 5 2 4 3 8 6 12 10 9 2 7 18 20 16 20 22
18 17 15 16 9 11 7 6 7 3 10 3 4 4 4 4 2 5 4 3 2 4 5 7 1 5 4 3 1 9 3 2 1 3 9 16 14 9 5 6 8 13 13 14 18
21 19 17 15 7 8 12 12 4 9 3 6 7 6 3 6 6 8 7 9 8 6 10 4 7 3 4 4 2 5 4 6 6 5 12 3 8 20 15 14 13 19 13 13 15
25 23 24 18 11 12 19 4 15 8 14 3 4 5 9 12 8 10 6 8 12 5 2 6 14 13 12 15 7 12 8 6 11 13 21 7 11 14 10 17 25 14 15 12 15
29 33 33 26 17 17 14 10 15 11 8 9 3 6 8 5 5 7 13 9 10 20 14 8 16 3 1 1 4 8 8 3 3 2 7 12 24 9 7 10 9 18 17 22 22
40 40 41 31 21 24 6 23 12 11 8 7 19 16 17 16 9 11 11 6 8 15 21 3 10 3 3 2 1 4 4 4 3 6 16 24 29 18 10 15 9 11 19 24 22
37 15 20 27 27 18 10 15 11 17 12 13 21 17 16 16 15 12 15 5 9 7 11 3 6 3 5 12 16 6 6 5 3 5 9 18 18 3 5 5 11 13 21 18 22
28 5 19 32 13 7 12 10 7 7 12 9 4 12 23 16 14 13 16 15 21 14 12 8 3 10 21 3 2 9 15 18 9 11 9 13 26 8 5 4 4 8 16 15 14
12 9 30 47 10 11 13 13 10 12 12 9 14 12 10 14 11 16 18 10 17 13 12 10 5 7 13 5 2 8 10 10 17 15 29 13 23 16 19 6 7 11 17 19 23
9 4 7 22 16 19 20 20 16 17 14 9 4 3 1 10 12 14 14 4 10 10 4 15 7 13 20 22 1 5 14 19 23 18 22 25 30 36 34 23 23 26 22 27 34
13 6 13 6 12 16 15 8 21 14 16 13 5 21 22 19 23 19 27 20 5 5 2 6 14 14 21 24 23 24 19 19 26 28 26 29 25 31 32 26 26 30 28 33 34
12 5 10 5 29 25 22 17 27 25 21 14 18 22 21 26 23 23 23 21 17 4 6 4 18 18 27 29 32 34 21 33 32 34 25 24 27 35 36 46 38 48 39 44 43
14 27 14 14 12 13 22 28 27 26 27 35 29 19 21 25 42 49 42 29 9 15 17 9 8 11 22 25 23 14 33 35 41 38 32 30 34 36 34 29 32 44 37 40 46
Wind_Direction
343 351 357 1 7 9 10 11 11 14 21 24 24 263 265 345 194 212 199 165 150 124 75 192 261 186 182 191 171 164 234 243 226 196 153 171 204 200 214 210 208 211 229 232 217
320 330 338 342 347 353 356 355 356 356 358 358 357 328 253 249 272 252 217 197 172 106 94 165 173 168 179 164 174 234 254 250 216 192 235 202 221 209 204 211 233 236 239 237 231
308 317 323 328 332 335 339 342 342 343 343 342 338 325 270 258 274 240 212 207 211 20 17 176 147 177 173 169 179 224 267 194 238 231 218 226 229 212 234 239 237 232 237 238 230
304 310 314 319 323 327 329 331 332 333 334 331 328 316 284 242 240 204 206 214 221 265 320 308 235 172 179 204 183 240 246 233 262 216 196 222 191 225 225 247 261 256 250 245 228
294 299 305 310 313 317 321 323 323 325 326 328 322 308 282 245 245 231 216 220 228 240 253 263 243 178 217 189 199 228 215 230 250 256 242 239 241 251 249 255 256 263 261 249 236
289 293 297 302 308 311 312 314 312 314 317 319 316 298 269 242 246 229 223 227 235 238 246 252 236 250 177 203 223 191 254 261 267 251 240 234 250 223 259 223 232 245 252 249 241
285 289 293 297 302 304 306 308 306 306 306 310 310 292 270 267 252 232 227 231 237 240 242 248 241 214 174 205 230 300 290 275 228 227 236 213 255 235 263 255 254 251 245 242 241
279 283 289 293 298 301 303 306 304 303 303 304 304 287 259 258 244 237 234 235 236 238 243 236 234 228 179 157 127 239 249 256 160 177 192 198 277 254 264 247 251 248 242 247 240
272 277 281 284 291 295 300 304 304 301 297 293 288 267 264 260 242 236 229 227 228 227 224 221 223 194 159 223 257 213 272 231 269 211 159 213 278 263 243 254 266 264 256 249 243
266 269 273 279 284 290 296 302 305 299 281 271 254 257 247 246 239 231 223 221 219 214 204 205 187 227 201 205 258 263 247 253 263 185 215 232 258 278 276 262 266 272 266 250 238
271 270 272 276 281 287 293 308 304 292 252 232 219 241 269 247 243 233 218 209 211 203 216 142 227 240 246 229 268 266 259 261 267 200 245 256 262 268 280 277 265 272 266 255 243
274 272 272 276 278 285 290 295 278 274 297 259 253 255 259 262 255 245 219 188 181 220 145 176 239 253 48 214 227 233 260 264 280 250 220 275 273 273 268 268 270 271 270 257 248
280 277 276 275 277 279 276 275 277 279 252 269 244 246 252 245 238 247 204 202 199 201 204 228 255 79 197 207 206 228 236 256 267 323 237 293 275 241 256 263 271 263 260 250 239
288 286 283 282 295 272 266 261 247 290 261 242 229 227 223 204 247 217 194 192 199 240 192 240 241 207 199 230 204 240 231 245 266 296 282 5 291 279 252 245 264 273 253 242 241
297 291 290 282 257 253 254 220 165 92 275 44 186 217 179 186 126 207 192 196 214 184 176 222 180 190 207 229 178 249 110 173 209 257 316 257 268 280 167 241 259 262 257 234 228
291 292 285 288 280 232 211 175 142 204 242 245 182 189 170 210 194 128 163 164 137 171 245 260 160 216 212 82 156 135 120 145 154 258 255 259 225 275 242 212 246 265 236 224 212
271 279 277 277 270 212 175 151 218 232 45 197 204 191 216 186 200 188 170 180 190 178 215 193 219 169 174 133 117 195 180 277 256 225 264 152 234 262 283 242 233 256 255 216 206
260 251 264 264 269 193 167 184 237 189 210 99 163 157 201 169 213 186 177 220 229 216 219 241 255 183 183 218 204 184 217 204 261 277 288 113 251 278 227 252 248 259 257 225 221
249 236 241 241 246 193 173 215 240 230 185 178 104 206 218 223 210 185 215 229 210 192 210 210 256 99 229 93 181 164 199 235 288 105 281 259 262 239 186 251 250 253 247 243 247
241 233 234 232 221 187 193 242 233 203 160 183 218 196 230 218 190 193 198 190 230 198 225 256 262 119 124 145 47 225 140 139 200 260 258 276 281 279 239 244 212 237 239 242 240
250 215 230 224 192 174 212 237 251 247 208 196 230 239 234 238 214 218 241 210 198 199 206 204 217 197 151 205 191 171 204 227 311 227 253 265 270 103 171 263 207 219 233 243 242
230 222 206 180 180 201 226 232 235 248 239 257 237 251 244 227 238 235 243 225 186 161 170 207 208 234 239 146 310 252 232 215 225 228 235 259 270 118 58 146 182 237 243 252 257
231 221 185 181 189 210 224 238 261 233 232 214 230 221 215 235 235 235 244 211 194 173 171 170 207 241 255 213 178 212 210 232 242 258 248 236 252 255 270 266 252 247 257 274 260
249 198 167 216 242 219 219 225 229 235 243 238 285 33 212 242 234 253 249 201 207 208 221 180 172 217 239 251 100 191 228 222 223 234 252 242 260 274 274 272 279 273 264 264 263
235 218 182 183 235 236 226 228 238 240 228 209 221 225 234 248 248 252 260 250 189 185 224 183 234 236 249 261 274 278 270 251 234 242 243 257 258 261 273 276 272 275 276 274 270
251 182 183 213 219 217 223 222 229 239 230 231 225 231 232 241 243 259 245 249 238 198 215 203 244 247 252 261 263 258 260 262 266 258 252 254 262 262 269 278 282 275 270 274 273
269 258 237 189 195 208 223 226 231 236 242 237 234 234 233 228 227 240 251 257 205 232 228 211 224 220 240 232 251 256 241 249 256 262 257 255 255 269 268 264 262 271 275 268 268